Regional Weather Roundup
Issued by NWS

Home | Current Version | Previous Version | Text Only | Print | Product List | Glossary Off
Versions: 1 2 3 4 5 6 7 8 9 10 11 12 13 14 15 16 17 18 19 20 21 22 23 24 25 26 27 28 29 30 31 32 33 34 35 36 37 38 39 40 41 42 43 44 45 46 47 48 49 50

802
ASUS43 KLSX 242057
RWRMO

WEATHER SUMMARY FOR MISSOURI
NATIONAL WEATHER SERVICE SPRINGFIELD MO
400 PM CDT TUE MAY 24 2016

NOTE: "FAIR" INDICATES FEW OR NO CLOUDS BELOW 12,000 FEET WITH NO
       SIGNIFICANT WEATHER AND/OR OBSTRUCTIONS TO VISIBILITY.
       CURRENT SKY AND/OR WEATHER CONDITIONS ARE NOT AVAILABLE FOR
       CHILLICOTHE AND FARMINGTON.

MOZ001>031-035>038-043-044-053-054-242200-
...NORTHERN AND WESTERN MISSOURI...

CITY           SKY/WX    TMP DP  RH WIND       PRES   REMARKS
KANSAS CTY INT MOSUNNY   78  65  63 SE9       29.88F
LEE`S SUMMIT   CLOUDY    75  66  73 S13       29.88F
ST JOSEPH      CLOUDY    80  62  54 S9        29.89F
CHILLICOTHE      N/A     76  67  73 S7        29.91F

$$
MOZ066>068-077>081-088>096-101>105-242200-
...SOUTHWEST MISSOURI...

CITY           SKY/WX    TMP DP  RH WIND       PRES   REMARKS
SPRINGFIELD    CLOUDY    68  63  84 S10       29.96F
JOPLIN         CLOUDY    76  68  76 SE10      29.94F

$$
MOZ032>034-039>042-045>050-055>058-069>072-242200-
...CENTRAL MISSOURI...

CITY           SKY/WX    TMP DP  RH WIND       PRES   REMARKS
COLUMBIA       NOT AVBL
JEFFERSON CITY LGT RAIN  67  62  84 SE21G28   29.83F
ROLLA          TSTM      64  62  93 SE3       29.95F
SEDALIA        CLOUDY    74  66  76 SE14      29.89F
WARRENSBURG    CLOUDY    73  64  73 S8G16     29.88F

$$
MOZ051-052-059>065-242200-
...EAST CENTRAL MISSOURI...

CITY           SKY/WX    TMP DP  RH WIND       PRES   REMARKS
ST LOUIS INTL  CLOUDY    79  65  62 S8        29.99R

$$
MOZ072>076-082>087-097>100-106>115-242200-
...SOUTH CENTRAL AND SOUTHEAST MISSOURI...

CITY           SKY/WX    TMP DP  RH WIND       PRES   REMARKS
CAPE GIRARDEAU CLOUDY    78  64  61 SW10      30.04F
POPLAR BLUFF   RAIN      68  66  93 E9        30.00F FOG
WEST PLAINS    TSTM      65  61  87 CALM      30.13S FOG

$$



USA.gov is the U.S. government's official web portal to all federal, state and local government web resources and services.